Location: Cz?stochówka
(50.8142°N, 19.0915°E)
Time: 14:20:28
(UTC+00:00)

Cosmos 2366 rocket - Pass Details

Date: 15 April 2026
Orbit: 954 x 996 km, 82.9° (Epoch: 16 May)

Event Time Altitude Azimuth Distance (km) Brightness Sun altitude
Rises 21:22:16 0° 252° (WSW) 3,640 7.1 -26.7°
Reaches altitude 10° 21:26:19 10° 277° (W) 2,693 6.6 -26.9°
Maximum altitude 21:29:14 14° 306° (NW) 2,440 6.7 -27.1°
Drops below altitude 10° 21:32:11 10° 335° (NNW) 2,695 7.3 -27.2°
Sets 21:36:15 0° 1° (N) 3,645 8.1 -27.4°
